Time,TemperatureF,DewpointF,PressureIn,WindDirection,WindDirectionDegrees,WindSpeedMPH,WindSpeedGustMPH,Humidity,HourlyPrecipIn,Conditions,Clouds,dailyrainin,SoftwareType,DateUTC
2013-03-25 00:02:00,24.0,18.0,30.05,NW,319,3.0,8.0,76,0.00,,,0.00,,2013-03-25 05:02:00,
2013-03-25 00:22:00,24.0,18.0,30.05,NW,319,3.0,8.0,76,0.00,,,0.00,,2013-03-25 05:22:00,
2013-03-25 00:33:00,24.0,18.0,30.05,NW,319,3.0,8.0,76,0.00,,,0.00,,2013-03-25 05:33:00,
2013-03-25 00:42:00,24.0,18.0,30.05,NW,319,3.0,8.0,76,0.00,,,0.00,,2013-03-25 05:42:00,
2013-03-25 00:52:00,24.0,18.0,30.05,NW,319,3.0,8.0,76,0.00,,,0.00,,2013-03-25 05:52:00,
2013-03-25 02:02:00,22.0,16.0,30.05,NNW,327,5.0,10.0,79,0.00,,,0.00,,2013-03-25 07:02:00,
2013-03-25 02:22:00,22.0,16.0,30.05,NNW,327,5.0,10.0,79,0.00,,,0.00,,2013-03-25 07:22:00,
2013-03-25 02:32:00,22.0,16.0,30.05,NNW,327,5.0,10.0,79,0.00,,,0.00,,2013-03-25 07:32:00,
2013-03-25 02:42:00,22.0,16.0,30.05,NNW,327,5.0,10.0,79,0.00,,,0.00,,2013-03-25 07:42:00,
2013-03-25 02:53:00,22.0,16.0,30.05,NNW,327,5.0,10.0,79,0.00,,,0.00,,2013-03-25 07:53:00,
2013-03-25 04:03:00,21.0,17.0,30.03,WNW,303,5.0,10.0,83,0.00,,,0.00,,2013-03-25 09:03:00,
2013-03-25 04:22:00,21.0,17.0,30.03,WNW,303,5.0,10.0,83,0.00,,,0.00,,2013-03-25 09:22:00,
2013-03-25 04:33:00,21.0,17.0,30.03,WNW,303,5.0,10.0,83,0.00,,,0.00,,2013-03-25 09:33:00,
2013-03-25 04:43:00,21.0,17.0,30.03,WNW,303,5.0,10.0,83,0.00,,,0.00,,2013-03-25 09:43:00,
2013-03-25 04:52:00,21.0,17.0,30.03,WNW,303,5.0,10.0,83,0.00,,,0.00,,2013-03-25 09:52:00,
2013-03-25 06:02:00,23.0,19.0,30.06,NNW,335,7.0,17.0,85,0.00,,,0.00,,2013-03-25 11:02:00,
2013-03-25 06:23:00,23.0,19.0,30.06,NNW,335,7.0,17.0,85,0.00,,,0.00,,2013-03-25 11:23:00,
2013-03-25 06:32:00,23.0,19.0,30.06,NNW,335,7.0,17.0,85,0.00,,,0.00,,2013-03-25 11:32:00,
2013-03-25 06:42:00,23.0,19.0,30.06,NNW,335,7.0,17.0,85,0.00,,,0.00,,2013-03-25 11:42:00,
2013-03-25 06:53:00,23.0,19.0,30.06,NNW,335,7.0,17.0,85,0.00,,,0.00,,2013-03-25 11:53:00,
2013-03-25 08:03:00,25.0,22.0,30.09,NW,323,6.0,20.0,88,0.00,,,0.00,,2013-03-25 13:03:00,
2013-03-25 08:23:00,25.0,22.0,30.09,NW,323,6.0,20.0,88,0.00,,,0.00,,2013-03-25 13:23:00,
2013-03-25 08:32:00,25.0,22.0,30.09,NW,323,6.0,20.0,88,0.00,,,0.00,,2013-03-25 13:32:00,
2013-03-25 08:43:00,25.0,22.0,30.09,NW,323,6.0,20.0,88,0.00,,,0.00,,2013-03-25 13:43:00,
2013-03-25 08:52:00,25.0,22.0,30.09,NW,323,6.0,20.0,88,0.00,,,0.00,,2013-03-25 13:52:00,
2013-03-25 10:02:00,28.0,23.0,30.14,NNW,340,8.0,15.0,82,0.00,,,0.00,,2013-03-25 15:02:00,
2013-03-25 10:23:00,28.0,23.0,30.14,NNW,340,8.0,15.0,82,0.00,,,0.00,,2013-03-25 15:23:00,
2013-03-25 10:33:00,28.0,23.0,30.14,NNW,340,8.0,15.0,82,0.00,,,0.00,,2013-03-25 15:33:00,
2013-03-25 10:43:00,28.0,23.0,30.14,NNW,340,8.0,15.0,82,0.00,,,0.00,,2013-03-25 15:43:00,
2013-03-25 10:53:00,28.0,23.0,30.14,NNW,340,8.0,15.0,82,0.00,,,0.00,,2013-03-25 15:53:00,
2013-03-25 12:02:00,30.0,22.0,30.18,NW,314,7.0,19.0,73,0.00,,,0.00,,2013-03-25 17:02:00,
2013-03-25 12:24:00,30.0,22.0,30.18,NW,314,7.0,19.0,73,0.00,,,0.00,,2013-03-25 17:24:00,
2013-03-25 12:33:00,30.0,22.0,30.18,NW,314,7.0,19.0,73,0.00,,,0.00,,2013-03-25 17:33:00,
2013-03-25 12:43:00,30.0,22.0,30.18,NW,314,7.0,19.0,73,0.00,,,0.00,,2013-03-25 17:43:00,
2013-03-25 12:53:00,30.0,22.0,30.18,NW,314,7.0,19.0,73,0.00,,,0.00,,2013-03-25 17:53:00,
2013-03-25 14:02:00,31.0,24.0,30.19,NW,320,6.0,16.0,74,0.00,,,0.00,,2013-03-25 19:02:00,
2013-03-25 14:23:00,31.0,24.0,30.19,NW,320,6.0,16.0,74,0.00,,,0.00,,2013-03-25 19:23:00,
2013-03-25 14:33:00,31.0,24.0,30.19,NW,320,6.0,16.0,74,0.00,,,0.00,,2013-03-25 19:33:00,
2013-03-25 14:43:00,31.0,24.0,30.19,NW,320,6.0,16.0,74,0.00,,,0.00,,2013-03-25 19:43:00,
2013-03-25 14:52:00,31.0,24.0,30.19,NW,320,6.0,16.0,74,0.00,,,0.00,,2013-03-25 19:52:00,
2013-03-25 16:02:00,32.0,24.0,30.19,West,263,6.0,17.0,71,0.00,,,0.00,,2013-03-25 21:02:00,
2013-03-25 16:22:00,32.0,24.0,30.19,West,263,6.0,17.0,71,0.00,,,0.00,,2013-03-25 21:22:00,
2013-03-25 16:33:00,32.0,24.0,30.19,West,263,6.0,17.0,71,0.00,,,0.00,,2013-03-25 21:33:00,
2013-03-25 16:43:00,32.0,24.0,30.19,West,263,6.0,17.0,71,0.00,,,0.00,,2013-03-25 21:43:00,
2013-03-25 16:52:00,32.0,24.0,30.19,West,263,6.0,17.0,71,0.00,,,0.00,,2013-03-25 21:52:00,
2013-03-25 18:02:00,30.0,26.0,30.22,NW,323,5.0,13.0,84,0.00,,,0.00,,2013-03-25 23:02:00,
2013-03-25 18:23:00,30.0,26.0,30.22,NW,323,5.0,13.0,84,0.00,,,0.00,,2013-03-25 23:23:00,
2013-03-25 18:33:00,30.0,26.0,30.22,NW,323,5.0,13.0,84,0.00,,,0.00,,2013-03-25 23:33:00,
2013-03-25 18:43:00,30.0,26.0,30.22,NW,323,5.0,13.0,84,0.00,,,0.00,,2013-03-25 23:43:00,
2013-03-25 18:53:00,30.0,26.0,30.22,NW,323,5.0,13.0,84,0.00,,,0.00,,2013-03-25 23:53:00,
2013-03-25 20:02:00,29.0,25.0,30.27,NW,314,4.0,10.0,86,0.00,,,0.00,,2013-03-26 01:02:00,
2013-03-25 20:23:00,29.0,25.0,30.27,NW,314,4.0,10.0,86,0.00,,,0.00,,2013-03-26 01:23:00,
2013-03-25 20:33:00,29.0,25.0,30.27,NW,314,4.0,10.0,86,0.00,,,0.00,,2013-03-26 01:33:00,
2013-03-25 20:42:00,29.0,25.0,30.27,NW,314,4.0,10.0,86,0.00,,,0.00,,2013-03-26 01:42:00,
2013-03-25 20:52:00,29.0,25.0,30.27,NW,314,4.0,10.0,86,0.00,,,0.00,,2013-03-26 01:52:00,
2013-03-25 22:02:00,29.0,24.0,30.29,WNW,301,2.0,11.0,82,0.00,,,0.00,,2013-03-26 03:02:00,
2013-03-25 22:22:00,29.0,24.0,30.29,WNW,301,2.0,11.0,82,0.00,,,0.00,,2013-03-26 03:22:00,
2013-03-25 22:34:00,29.0,24.0,30.29,WNW,301,2.0,11.0,82,0.00,,,0.00,,2013-03-26 03:34:00,
2013-03-25 22:43:00,29.0,24.0,30.29,WNW,301,2.0,11.0,82,0.00,,,0.00,,2013-03-26 03:43:00,
2013-03-25 22:53:00,29.0,24.0,30.29,WNW,301,2.0,11.0,82,0.00,,,0.00,,2013-03-26 03:53:00,